Location: Clanezzo
(45.7500°N, 9.6000°E)
Time: 00:26:46
(UTC+00:00)

SJ 16-02 - Pass Details

Date: 12 May 2021
Orbit: 606 x 616 km, 75.0° (Epoch: 22 June)

Event Time Altitude Azimuth Distance (km) Brightness Sun altitude
Exits shadow 21:32:45 - 232° (SW) 2,220 4.1 -21.6°
Reaches altitude 10° 21:33:27 10° 236° (SW) 1,976 3.9 -21.6°
Maximum altitude 21:37:23 31° 299° (WNW) 1,094 3.1 -21.9°
Drops below altitude 10° 21:41:20 10° 1° (N) 1,989 4.8 -22.2°
Sets 21:43:48 0° 12° (NNE) 2,898 5.6 -22.4°
